Tulsa, OK

5:39 AM CDT on May 28, 2018 (GMT -0500)
Tulsa International

Weather History for KTUL - December, 2012

Change the Weather History Date:

Saturday, December 8, 2012

  Actual Average Record
Temperature  
Mean Temperature 51 °F 41 °F  
Max Temperature 55 °F 51 °F 73 °F (1966)
Min Temperature 46 °F 31 °F -3 °F (1917)
Degree Days  
Heating Degree Days 14 24  
Month to date heating degree days 72 185  
Since 1 July heating degree days 666 821  
Moisture  
Dew Point 47 °F    
Average Humidity 87    
Maximum Humidity 96    
Minimum Humidity 77    
Precipitation  
Precipitation 0.00 in 0.09 in 1.01 in (1956)
Month to date precipitation 0.05 0.69  
Year to date precipitation 27.94 39.17  
Sea Level Pressure  
Sea Level Pressure 29.88 in    
Wind  
Wind Speed 5 mph (North)    
Max Wind Speed 12 mph    
Max Gust Speed 16 mph    
Visibility 4 miles    
Events      
T = Trace of Precipitation, MM = Missing Value Source: NWS Daily Summary

Daily Weather History Graph

Daily Weather History Graph

Search for Another Location

Airport or City:

Astronomy

Dec. 08, 2012 Rise Set
Actual Time 7:22 AM CST 5:08 PM CST
Civil Twilight 6:54 AM CST 5:37 PM CST
Nautical Twilight 6:22 AM CST 6:09 PM CST
Astronomical Twilight 5:50 AM CST 6:40 PM CST
Moon 1:56 AM CST (12/8) 1:32 PM CST (12/8)
Length of Visible Light 10h 43m
Length of Day
9h 46m
Waning Crescent, 28% of the Moon is Illuminated
Dec 8
Waning Crescent
Dec 13
New
Dec 19
First Quarter
Dec 28
Full
Jan 4
Last Quarter

Hourly Weather History & Observations

Time (CST) Temp. Windchill Dew Point Humidity Pressure Visibility Wind Dir Wind Speed Gust Speed Precip Events Conditions
12:53 AM 52.0 °F - 50.0 °F 93% 29.88 in 5.0 mi NNW 5.8 mph - N/A   Overcast
1:53 AM 52.0 °F - 50.0 °F 93% 29.89 in 5.0 mi North 5.8 mph - N/A   Overcast
2:36 AM 51.8 °F - 50.0 °F 94% 29.90 in 3.0 mi North 10.4 mph - N/A   Overcast
2:53 AM 51.1 °F - 48.9 °F 92% 29.90 in 4.0 mi North 8.1 mph - N/A   Overcast
3:03 AM 51.8 °F - 48.2 °F 88% 29.91 in 4.0 mi North 10.4 mph - N/A   Overcast
3:53 AM 51.1 °F - 48.0 °F 89% 29.91 in 5.0 mi North 9.2 mph - N/A   Overcast
4:53 AM 50.0 °F - 48.0 °F 93% 29.91 in 3.0 mi North 9.2 mph - N/A   Overcast
5:53 AM 50.0 °F - 48.0 °F 93% 29.92 in 4.0 mi North 6.9 mph - N/A   Overcast
6:53 AM 50.0 °F - 46.9 °F 89% 29.93 in 4.0 mi North 6.9 mph - N/A   Overcast
7:53 AM 50.0 °F - 46.9 °F 89% 29.93 in 3.0 mi NNE 5.8 mph - N/A   Overcast
8:25 AM 50.0 °F - 46.4 °F 87% 29.93 in 2.5 mi North 5.8 mph - N/A   Overcast
8:53 AM 50.0 °F - 46.0 °F 86% 29.93 in 2.5 mi Variable 4.6 mph - N/A   Overcast
9:06 AM 50.0 °F - 46.4 °F 87% 29.93 in 2.5 mi Variable 3.5 mph - N/A   Overcast
9:26 AM 51.8 °F - 46.4 °F 82% 29.93 in 2.5 mi North 4.6 mph - N/A   Overcast
9:53 AM 51.1 °F - 46.9 °F 86% 29.94 in 2.5 mi North 4.6 mph - N/A   Overcast
10:21 AM 51.8 °F - 46.4 °F 82% 29.94 in 3.0 mi North 5.8 mph - N/A   Overcast
10:53 AM 52.0 °F - 46.9 °F 83% 29.93 in 3.0 mi North 5.8 mph - N/A   Overcast
11:53 AM 53.1 °F - 46.0 °F 77% 29.89 in 4.0 mi ENE 4.6 mph - N/A   Overcast
12:53 PM 53.1 °F - 46.9 °F 80% 29.87 in 4.0 mi NE 4.6 mph - N/A   Overcast
1:36 PM 55.4 °F - 46.4 °F 72% 29.85 in 4.0 mi Calm Calm - N/A   Overcast
1:53 PM 54.0 °F - 46.9 °F 77% 29.84 in 4.0 mi Calm Calm - N/A   Overcast
2:53 PM 54.0 °F - 46.9 °F 77% 29.83 in 5.0 mi NNW 4.6 mph - N/A   Overcast
3:53 PM 53.1 °F - 46.9 °F 80% 29.83 in 4.0 mi North 4.6 mph - N/A   Overcast
4:36 PM 51.8 °F - 46.4 °F 82% 29.84 in 4.0 mi North 6.9 mph - N/A   Overcast
4:53 PM 52.0 °F - 46.0 °F 80% 29.83 in 4.0 mi North 5.8 mph - N/A   Overcast
5:53 PM 50.0 °F - 46.0 °F 86% 29.83 in 5.0 mi NE 6.9 mph - N/A   Mostly Cloudy
6:53 PM 48.9 °F - 46.0 °F 90% 29.82 in 4.0 mi NE 8.1 mph - N/A   Scattered Clouds
7:53 PM 48.9 °F - 46.0 °F 90% 29.82 in 4.0 mi NE 3.5 mph - N/A   Overcast
8:53 PM 48.2 °F - 46.4 °F 93% 29.82 in 4.0 mi NNE 3.5 mph - N/A   Overcast
9:24 PM 48.2 °F - 46.4 °F 93% 29.83 in 4.0 mi NNW 3.5 mph - N/A   Overcast
9:53 PM 48.9 °F - 46.0 °F 90% 29.83 in 4.0 mi Calm Calm - N/A   Overcast
10:53 PM 48.0 °F - 46.0 °F 93% 29.83 in 4.0 mi NE 3.5 mph - N/A   Mostly Cloudy
11:53 PM 46.0 °F 44.8 °F 45.0 °F 96% 29.80 in 4.0 mi North 3.5 mph - N/A   Mostly Cloudy